{"data":{"norad_id":68557,"intl_designator":"2026-070R","name":"STARLINK-37210","alt_names":[],"object_type":"PAYLOAD","status":"ACTIVE","operator":null,"country":"US","launch_date":"2026-04-02","launch_site_code":"AFETR","launch_vehicle":null,"mission":null,"orbit_class":"UNKNOWN","rcs_meters":null,"size_class":null,"mass_kg":null,"dimensions":null,"purposes":["comms"],"wikipedia_slug":null,"has_3d_model":false,"image_url":null,"decayed_at":null,"tle_current":{"epoch":"2026-05-25T01:13:02.806752Z","epoch_age_seconds":70412,"freshness":"FRESH","line1":"1 68557U 26070R   26145.05072693  .00014332  00000+0  43447-3 0  9993","line2":"2 68557  53.1593   7.3440 0001068  73.5656 286.5464 15.34402678  8254","mean_motion":15.34402678,"eccentricity":0.0001068,"inclination_deg":53.1593,"raan_deg":7.344,"arg_perigee_deg":73.5656,"mean_anomaly_deg":286.5464,"bstar":0.00043447,"rev_number":825,"period_min":93.847594288414,"perigee_km":461.96467975075,"apogee_km":463.42588152589,"semimajor_km":6840.8322806383,"source":"CELESTRAK","updated_at":"2026-05-25T13:38:21.962727Z"}}}